QTR55P OTHH-VOTV

Flight info

Callsign QTR55P
Flight time 4h 7m
Altitude 35000
Route BUNDU3E/34R BUNDU B415 SIXIV N318 TOLDA P570 EMURU M300 VASTU P895 CIA DCT SANOT SANOT
Aircraft A320/M-SDE3FGHIRWY/LB1

Departure

Time 2026-05-05 19:56
Airport Hamad International Airport (OTHH)

Arrival

Time 2026-05-06 00:03
Airport Thiruvananthapuram International Airport (VOTV)
Time Latitude Longitude Altitude Speed Heading
2026-05-05 19:18 25.25921 51.60970 30 ft 0 kts 358°
2026-05-05 19:48 25.25919 51.60970 30 ft 2 kts 357°
2026-05-05 19:48 25.25893 51.60971 30 ft 3 kts 357°
2026-05-05 19:49 25.25871 51.60973 30 ft 4 kts 344°
2026-05-05 19:49 25.25849 51.60986 30 ft 4 kts 303°
2026-05-05 19:49 25.25844 51.61009 30 ft 3 kts 248°
2026-05-05 19:49 25.25851 51.61026 30 ft 0 kts 248°
2026-05-05 19:52 25.25849 51.61020 30 ft 2 kts 248°
2026-05-05 19:52 25.25841 51.60999 30 ft 4 kts 248°
2026-05-05 19:52 25.25827 51.60962 30 ft 6 kts 248°
2026-05-05 19:53 25.25807 51.60909 30 ft 9 kts 247°
2026-05-05 19:53 25.25782 51.60840 30 ft 11 kts 248°
2026-05-05 19:53 25.25752 51.60756 30 ft 13 kts 249°
2026-05-05 19:53 25.25724 51.60677 29 ft 9 kts 248°
2026-05-05 19:54 25.25711 51.60642 29 ft 0 kts 249°
2026-05-05 19:54 25.25706 51.60629 28 ft 5 kts 249°
2026-05-05 19:54 25.25690 51.60574 27 ft 10 kts 260°
2026-05-05 19:55 25.25711 51.60489 29 ft 13 kts 304°
2026-05-05 19:55 25.25783 51.60435 28 ft 13 kts 338°
2026-05-05 19:55 25.25880 51.60392 28 ft 27 kts 338°
2026-05-05 19:55 25.26276 51.60219 27 ft 92 kts 338°
2026-05-05 19:56 25.27037 51.59883 26 ft 141 kts 338°
2026-05-05 19:56 25.28076 51.59424 51 ft 177 kts 338°
2026-05-05 19:56 25.29201 51.58907 625 ft 174 kts 338°
2026-05-05 19:56 25.30369 51.58524 1165 ft 179 kts 355°
2026-05-05 19:57 25.31661 51.58658 1386 ft 198 kts 19°
2026-05-05 19:57 25.32943 51.59423 1469 ft 224 kts 33°
2026-05-05 19:57 25.34287 51.60406 1807 ft 238 kts 34°
2026-05-05 19:57 25.35667 51.61437 2431 ft 241 kts 34°
2026-05-05 19:58 25.37075 51.62489 2901 ft 247 kts 34°
2026-05-05 19:58 25.38535 51.63476 2996 ft 247 kts 27°
2026-05-05 19:58 25.40087 51.64276 3006 ft 246 kts 24°
2026-05-05 19:58 25.41665 51.65002 3007 ft 246 kts 23°
2026-05-05 19:59 25.43250 51.65714 3007 ft 246 kts 24°
2026-05-05 19:59 25.44643 51.66765 3006 ft 244 kts 51°
2026-05-05 19:59 25.45332 51.68459 3010 ft 250 kts 83°
2026-05-05 19:59 25.45041 51.70411 3307 ft 269 kts 115°
2026-05-05 20:00 25.44074 51.72214 3894 ft 275 kts 120°
2026-05-05 20:00 25.43054 51.74030 4527 ft 280 kts 120°
2026-05-05 20:00 25.42017 51.75868 5158 ft 284 kts 120°
2026-05-05 20:00 25.40963 51.77734 5772 ft 288 kts 120°
2026-05-05 20:01 25.39899 51.79627 6374 ft 292 kts 120°
2026-05-05 20:01 25.38819 51.81550 6986 ft 296 kts 120°
2026-05-05 20:01 25.37725 51.83496 7582 ft 300 kts 119°
2026-05-05 20:01 25.36638 51.85435 8162 ft 304 kts 119°
2026-05-05 20:02 25.35523 51.87428 8754 ft 306 kts 120°
2026-05-05 20:02 25.34396 51.89433 9292 ft 309 kts 120°
2026-05-05 20:02 25.33253 51.91460 9857 ft 312 kts 120°
2026-05-05 20:02 25.32095 51.93518 10226 ft 322 kts 119°
2026-05-05 20:03 25.30881 51.95686 10359 ft 340 kts 120°
2026-05-05 20:03 25.29605 51.97958 10493 ft 356 kts 120°
2026-05-05 20:03 25.28278 52.00313 10829 ft 364 kts 120°
2026-05-05 20:03 25.26928 52.02700 11345 ft 367 kts 120°
2026-05-05 20:04 25.25574 52.05093 11937 ft 368 kts 120°
2026-05-05 20:04 25.24212 52.07498 12513 ft 370 kts 120°
2026-05-05 20:04 25.22847 52.09912 13073 ft 372 kts 120°
2026-05-05 20:04 25.21514 52.12269 13605 ft 375 kts 120°
2026-05-05 20:05 25.20131 52.14719 14130 ft 378 kts 120°
2026-05-05 20:05 25.18736 52.17184 14662 ft 380 kts 121°
2026-05-05 20:05 25.17327 52.19670 15179 ft 383 kts 121°
2026-05-05 20:05 25.15907 52.22174 15690 ft 386 kts 121°
2026-05-05 20:06 25.14483 52.24684 16199 ft 388 kts 121°
2026-05-05 20:06 25.13045 52.27219 16710 ft 391 kts 121°
2026-05-05 20:06 25.11600 52.29769 17222 ft 393 kts 121°
2026-05-05 20:06 25.10147 52.32333 17720 ft 396 kts 122°
2026-05-05 20:07 25.08682 52.34918 18234 ft 398 kts 122°
2026-05-05 20:07 25.07204 52.37517 18726 ft 401 kts 122°
2026-05-05 20:07 25.05713 52.40134 19195 ft 405 kts 122°
2026-05-05 20:07 25.04208 52.42772 19650 ft 408 kts 122°
2026-05-05 20:08 25.02689 52.45435 20096 ft 411 kts 122°
2026-05-05 20:08 25.01211 52.48096 20527 ft 415 kts 118°
2026-05-05 20:08 25.00040 52.51055 20958 ft 419 kts 108°
2026-05-05 20:08 24.99150 52.54081 21369 ft 422 kts 108°
2026-05-05 20:09 24.98243 52.57164 21768 ft 425 kts 108°
2026-05-05 20:09 24.97322 52.60275 22155 ft 428 kts 109°
2026-05-05 20:09 24.96393 52.63398 22527 ft 431 kts 109°
2026-05-05 20:09 24.95451 52.66552 22882 ft 434 kts 109°
2026-05-05 20:10 24.94523 52.69726 23230 ft 437 kts 108°
2026-05-05 20:10 24.93673 52.72958 23573 ft 440 kts 106°
2026-05-05 20:10 24.92889 52.76227 23896 ft 443 kts 105°
2026-05-05 20:10 24.92132 52.79532 24208 ft 446 kts 105°
2026-05-05 20:11 24.91376 52.82850 24525 ft 448 kts 105°
2026-05-05 20:11 24.90599 52.86185 24823 ft 451 kts 105°
2026-05-05 20:11 24.89797 52.89536 25107 ft 454 kts 105°
2026-05-05 20:11 24.88975 52.92897 25389 ft 456 kts 106°
2026-05-05 20:12 24.88138 52.96284 25660 ft 459 kts 106°
2026-05-05 20:12 24.87297 52.99685 25933 ft 462 kts 106°
2026-05-05 20:12 24.86451 53.03108 26204 ft 464 kts 106°
2026-05-05 20:12 24.85607 53.06545 26455 ft 467 kts 106°
2026-05-05 20:13 24.84760 53.10008 26703 ft 469 kts 106°
2026-05-05 20:13 24.83910 53.13484 26941 ft 472 kts 106°
2026-05-05 20:13 24.83055 53.16981 27174 ft 474 kts 106°
2026-05-05 20:13 24.82194 53.20494 27410 ft 476 kts 106°
2026-05-05 20:14 24.81326 53.24021 27659 ft 479 kts 106°
2026-05-05 20:14 24.80449 53.27567 27897 ft 481 kts 106°
2026-05-05 20:14 24.79572 53.31121 28138 ft 483 kts 106°
2026-05-05 20:14 24.78691 53.34690 28387 ft 485 kts 106°
2026-05-05 20:15 24.77800 53.38281 28650 ft 487 kts 106°
2026-05-05 20:15 24.76906 53.41865 29001 ft 486 kts 106°
2026-05-05 20:15 24.76011 53.45457 29330 ft 486 kts 106°
2026-05-05 20:15 24.75121 53.49042 29668 ft 486 kts 106°
2026-05-05 20:16 24.74228 53.52632 30006 ft 486 kts 106°
2026-05-05 20:16 24.73337 53.56216 30327 ft 486 kts 106°
2026-05-05 20:16 24.72444 53.59807 30672 ft 486 kts 106°
2026-05-05 20:16 24.71552 53.63388 31001 ft 486 kts 107°
2026-05-05 20:17 24.70657 53.66974 31340 ft 485 kts 107°
2026-05-05 20:17 24.69762 53.70546 31682 ft 485 kts 107°
2026-05-05 20:17 24.68862 53.74122 32015 ft 484 kts 107°
2026-05-05 20:17 24.67964 53.77687 32331 ft 484 kts 107°
2026-05-05 20:18 24.67066 53.81249 32665 ft 484 kts 107°
2026-05-05 20:18 24.66164 53.84814 32997 ft 483 kts 107°
2026-05-05 20:18 24.65265 53.88367 33298 ft 483 kts 107°
2026-05-05 20:18 24.64364 53.91925 33586 ft 482 kts 107°
2026-05-05 20:19 24.63470 53.95472 33866 ft 482 kts 107°
2026-05-05 20:19 24.62624 53.99043 34119 ft 482 kts 105°
2026-05-05 20:19 24.61832 54.02621 34385 ft 482 kts 104°
2026-05-05 20:19 24.61068 54.06211 34655 ft 481 kts 104°
2026-05-05 20:20 24.60310 54.09794 34773 ft 483 kts 104°
2026-05-05 20:20 24.58744 54.17050 34793 ft 493 kts 105°
2026-05-05 20:21 24.57101 54.24404 34796 ft 497 kts 105°
2026-05-05 20:21 24.55434 54.31769 34795 ft 497 kts 105°
2026-05-05 20:22 24.53790 54.39145 34794 ft 497 kts 104°
2026-05-05 20:22 24.52362 54.46581 34794 ft 498 kts 102°
2026-05-05 20:23 24.50944 54.54019 34790 ft 497 kts 109°
2026-05-05 20:23 24.48707 54.61187 34789 ft 497 kts 111°
2026-05-05 20:24 24.46395 54.68331 34791 ft 497 kts 111°
2026-05-05 20:24 24.44068 54.75472 34794 ft 497 kts 111°
2026-05-05 20:25 24.41744 54.82616 34793 ft 497 kts 111°
2026-05-05 20:25 24.39431 54.89766 34801 ft 497 kts 111°
2026-05-05 20:26 24.37110 54.96914 34800 ft 497 kts 111°
2026-05-05 20:26 24.34780 55.04057 34803 ft 497 kts 111°
2026-05-05 20:27 24.31779 55.10833 34813 ft 493 kts 126°
2026-05-05 20:27 24.28052 55.17138 34808 ft 493 kts 126°
2026-05-05 20:28 24.24318 55.23432 34814 ft 492 kts 126°
2026-05-05 20:28 24.20595 55.29721 34833 ft 492 kts 125°
2026-05-05 20:29 24.17117 55.36187 34837 ft 495 kts 115°
2026-05-05 20:29 24.14459 55.43146 34842 ft 495 kts 114°
2026-05-05 20:30 24.11788 55.50096 34845 ft 495 kts 114°
2026-05-05 20:30 24.09104 55.57036 34850 ft 495 kts 115°
2026-05-05 20:31 24.06411 55.63972 34854 ft 495 kts 115°
2026-05-05 20:31 24.03458 55.70766 34853 ft 494 kts 119°
2026-05-05 20:32 24.00205 55.77375 34853 ft 493 kts 121°
2026-05-05 20:32 23.97474 55.82847 34849 ft 493 kts 120°
2026-05-05 20:33 23.94266 55.89475 34852 ft 494 kts 119°
2026-05-05 20:33 23.91107 55.96142 34850 ft 494 kts 119°
2026-05-05 20:34 23.87435 56.03875 34843 ft 493 kts 119°
2026-05-05 20:34 23.84766 56.09446 34841 ft 493 kts 119°
2026-05-05 20:35 23.81573 56.16077 34836 ft 493 kts 119°
2026-05-05 20:35 23.78386 56.22711 34835 ft 493 kts 119°
2026-05-05 20:36 23.75199 56.29339 34835 ft 493 kts 119°
2026-05-05 20:36 23.72010 56.35955 34814 ft 492 kts 120°
2026-05-05 20:37 23.68822 56.42556 34825 ft 492 kts 119°
2026-05-05 20:37 23.65627 56.49169 34830 ft 492 kts 119°
2026-05-05 20:38 23.62434 56.55767 34831 ft 491 kts 119°
2026-05-05 20:38 23.59244 56.62357 34830 ft 491 kts 119°
2026-05-05 20:39 23.56050 56.68938 34812 ft 491 kts 119°
2026-05-05 20:39 23.52860 56.75505 34811 ft 491 kts 119°
2026-05-05 20:40 23.49662 56.82071 34815 ft 490 kts 119°
2026-05-05 20:40 23.46460 56.88630 34802 ft 490 kts 120°
2026-05-05 20:41 23.43263 56.95184 34804 ft 490 kts 119°
2026-05-05 20:41 23.40060 57.01733 34800 ft 490 kts 119°
2026-05-05 20:42 23.36863 57.08285 34803 ft 490 kts 118°
2026-05-05 20:42 23.33817 57.14917 34799 ft 490 kts 117°
2026-05-05 20:43 23.30861 57.21596 34804 ft 490 kts 117°
2026-05-05 20:43 23.27907 57.28210 34795 ft 489 kts 117°
2026-05-05 20:44 23.24883 57.34847 34793 ft 490 kts 117°
2026-05-05 20:44 23.21850 57.41479 34797 ft 490 kts 117°
2026-05-05 20:45 23.17306 57.51431 34798 ft 490 kts 117°
2026-05-05 20:45 23.14283 57.58066 34801 ft 490 kts 117°
2026-05-05 20:46 23.11258 57.64695 34805 ft 490 kts 117°
2026-05-05 20:46 23.08225 57.71319 34803 ft 490 kts 117°
2026-05-05 20:47 23.05182 57.77936 34804 ft 490 kts 117°
2026-05-05 20:47 23.02145 57.84550 34801 ft 490 kts 117°
2026-05-05 20:48 22.99105 57.91170 34809 ft 490 kts 117°
2026-05-05 20:48 22.96059 57.97784 34810 ft 489 kts 117°
2026-05-05 20:49 22.92990 58.04426 34812 ft 489 kts 117°
2026-05-05 20:49 22.89941 58.11021 34810 ft 489 kts 117°
2026-05-05 20:50 22.86894 58.17617 34801 ft 490 kts 117°
2026-05-05 20:50 22.83859 58.24172 34798 ft 490 kts 117°
2026-05-05 20:51 22.80796 58.30762 34799 ft 489 kts 117°
2026-05-05 20:51 22.77742 58.37351 34801 ft 489 kts 117°
2026-05-05 20:52 22.74665 58.43978 34806 ft 489 kts 117°
2026-05-05 20:52 22.71602 58.50553 34814 ft 489 kts 117°
2026-05-05 20:53 22.68414 58.57052 34815 ft 488 kts 125°
2026-05-05 20:53 22.63883 58.62443 34816 ft 483 kts 144°
2026-05-05 20:54 22.58268 58.66364 34808 ft 481 kts 151°
2026-05-05 20:54 22.52553 58.70129 34811 ft 481 kts 150°
2026-05-05 20:55 22.46835 58.73893 34810 ft 481 kts 150°
2026-05-05 20:55 22.41114 58.77653 34807 ft 481 kts 150°
2026-05-05 20:56 22.35393 58.81414 34816 ft 481 kts 150°
2026-05-05 20:56 22.29673 58.85182 34819 ft 482 kts 150°
2026-05-05 20:57 22.24043 58.89103 34815 ft 483 kts 142°
2026-05-05 20:57 22.19418 58.94367 34824 ft 485 kts 130°
2026-05-05 20:58 22.15108 58.99965 34821 ft 485 kts 131°
2026-05-05 20:58 22.10780 59.05552 34812 ft 485 kts 131°
2026-05-05 20:59 22.06454 59.11142 34817 ft 485 kts 131°
2026-05-05 20:59 22.02139 59.16740 34829 ft 485 kts 130°
2026-05-05 21:00 21.97825 59.22328 34834 ft 485 kts 130°
2026-05-05 21:00 21.93496 59.27904 34838 ft 484 kts 131°
2026-05-05 21:01 21.89174 59.33458 34836 ft 484 kts 131°
2026-05-05 21:01 21.84856 59.39014 34835 ft 483 kts 131°
2026-05-05 21:02 21.80541 59.44568 34832 ft 484 kts 131°
2026-05-05 21:02 21.76220 59.50117 34831 ft 484 kts 131°
2026-05-05 21:03 21.71897 59.55666 34829 ft 484 kts 131°
2026-05-05 21:03 21.67573 59.61216 34831 ft 484 kts 131°
2026-05-05 21:04 21.63248 59.66754 34833 ft 484 kts 131°
2026-05-05 21:04 21.58909 59.72299 34837 ft 484 kts 131°
2026-05-05 21:05 21.54577 59.77826 34837 ft 484 kts 131°
2026-05-05 21:05 21.50238 59.83358 34837 ft 484 kts 131°
2026-05-05 21:06 21.45886 59.88873 34841 ft 484 kts 131°
2026-05-05 21:06 21.41535 59.94382 34840 ft 483 kts 131°
2026-05-05 21:07 21.37194 59.99894 34842 ft 483 kts 131°
2026-05-05 21:07 21.32850 60.05401 34842 ft 483 kts 131°
2026-05-05 21:08 21.28504 60.10900 34844 ft 483 kts 131°
2026-05-05 21:08 21.24149 60.16384 34844 ft 483 kts 131°
2026-05-05 21:09 21.19809 60.21871 34845 ft 482 kts 130°
2026-05-05 21:09 21.15493 60.27354 34846 ft 481 kts 130°
2026-05-05 21:10 21.11179 60.32814 34844 ft 479 kts 131°
2026-05-05 21:10 21.06866 60.38252 34842 ft 479 kts 131°
2026-05-05 21:11 21.02556 60.43681 34842 ft 478 kts 131°
2026-05-05 21:11 20.98254 60.49104 34841 ft 478 kts 131°
2026-05-05 21:12 20.93985 60.54483 34838 ft 477 kts 131°
2026-05-05 21:12 20.89686 60.59890 34838 ft 477 kts 131°
2026-05-05 21:13 20.86090 60.64408 34838 ft 476 kts 131°
2026-05-05 21:13 20.81097 60.70675 34842 ft 476 kts 131°
2026-05-05 21:14 20.76798 60.76060 34836 ft 476 kts 131°
2026-05-05 21:14 20.72506 60.81445 34811 ft 476 kts 131°
2026-05-05 21:15 20.68904 60.85949 34830 ft 476 kts 131°
2026-05-05 21:15 20.64605 60.91320 34814 ft 475 kts 131°
2026-05-05 21:16 20.60541 60.96875 34830 ft 475 kts 122°
2026-05-05 21:16 20.57007 61.02832 34821 ft 475 kts 122°
2026-05-05 21:17 20.53463 61.08777 34811 ft 475 kts 122°
2026-05-05 21:17 20.49911 61.14715 34812 ft 475 kts 123°
2026-05-05 21:18 20.46353 61.20652 34813 ft 475 kts 123°
2026-05-05 21:18 20.42799 61.26584 34825 ft 475 kts 123°
2026-05-05 21:19 20.39260 61.32486 34825 ft 475 kts 123°
2026-05-05 21:19 20.35695 61.38417 34831 ft 475 kts 123°
2026-05-05 21:20 20.32132 61.44341 34831 ft 475 kts 123°
2026-05-05 21:20 20.28549 61.50306 34832 ft 474 kts 122°
2026-05-05 21:21 20.25013 61.56189 34830 ft 474 kts 123°
2026-05-05 21:21 20.21453 61.62099 34836 ft 474 kts 122°
2026-05-05 21:22 20.17895 61.67997 34837 ft 473 kts 123°
2026-05-05 21:22 20.14338 61.73887 34837 ft 473 kts 123°
2026-05-05 21:23 20.10785 61.79766 34833 ft 472 kts 123°
2026-05-05 21:23 20.07235 61.85639 34832 ft 472 kts 123°
2026-05-05 21:24 20.03685 61.91501 34830 ft 471 kts 123°
2026-05-05 21:24 20.00130 61.97355 34811 ft 471 kts 123°
2026-05-05 21:25 19.96574 62.03202 34823 ft 471 kts 123°
2026-05-05 21:25 19.93024 62.09053 34818 ft 471 kts 123°
2026-05-05 21:26 19.89474 62.14905 34815 ft 471 kts 123°
2026-05-05 21:26 19.85913 62.20751 34831 ft 471 kts 123°
2026-05-05 21:27 19.82339 62.26593 34834 ft 472 kts 123°
2026-05-05 21:27 19.78770 62.32442 34831 ft 472 kts 123°
2026-05-05 21:28 19.75210 62.38296 34826 ft 472 kts 123°
2026-05-05 21:28 19.71640 62.44145 34830 ft 472 kts 123°
2026-05-05 21:29 19.68065 62.49990 34831 ft 472 kts 123°
2026-05-05 21:29 19.64484 62.55834 34820 ft 473 kts 123°
2026-05-05 21:30 19.60896 62.61677 34830 ft 473 kts 123°
2026-05-05 21:30 19.57309 62.67522 34820 ft 473 kts 123°
2026-05-05 21:31 19.53720 62.73364 34833 ft 473 kts 123°
2026-05-05 21:31 19.50135 62.79208 34839 ft 473 kts 123°
2026-05-05 21:32 19.46542 62.85047 34843 ft 473 kts 123°
2026-05-05 21:32 19.42956 62.90879 34839 ft 473 kts 123°
2026-05-05 21:33 19.39382 62.96678 34840 ft 473 kts 123°
2026-05-05 21:33 19.35755 63.02554 34843 ft 474 kts 123°
2026-05-05 21:34 19.32177 63.08360 34843 ft 474 kts 123°
2026-05-05 21:34 19.28541 63.14241 34843 ft 474 kts 123°
2026-05-05 21:35 19.24925 63.20078 34846 ft 474 kts 123°
2026-05-05 21:35 19.21299 63.25918 34848 ft 475 kts 123°
2026-05-05 21:36 19.17674 63.31771 34853 ft 475 kts 123°
2026-05-05 21:36 19.14041 63.37617 34853 ft 476 kts 123°
2026-05-05 21:37 19.10433 63.43429 34856 ft 476 kts 124°
2026-05-05 21:37 19.06799 63.49282 34856 ft 476 kts 123°
2026-05-05 21:38 19.03162 63.55133 34858 ft 476 kts 124°
2026-05-05 21:38 18.99515 63.60977 34858 ft 476 kts 124°
2026-05-05 21:39 18.95873 63.66822 34858 ft 476 kts 124°
2026-05-05 21:39 18.92230 63.72663 34856 ft 476 kts 124°
2026-05-05 21:40 18.88580 63.78500 34857 ft 476 kts 124°
2026-05-05 21:40 18.84934 63.84332 34858 ft 476 kts 124°
2026-05-05 21:41 18.81293 63.90156 34854 ft 475 kts 124°
2026-05-05 21:41 18.77654 63.95983 34852 ft 475 kts 124°
2026-05-05 21:42 18.74009 64.01803 34848 ft 475 kts 124°
2026-05-05 21:42 18.70362 64.07623 34843 ft 475 kts 124°
2026-05-05 21:43 18.66705 64.13434 34841 ft 475 kts 124°
2026-05-05 21:43 18.63056 64.19241 34841 ft 476 kts 124°
2026-05-05 21:44 18.59397 64.25053 34841 ft 476 kts 124°
2026-05-05 21:44 18.55745 64.30872 34843 ft 476 kts 124°
2026-05-05 21:45 18.52087 64.36685 34841 ft 476 kts 124°
2026-05-05 21:45 18.48421 64.42490 34842 ft 476 kts 124°
2026-05-05 21:46 18.44754 64.48294 34842 ft 476 kts 124°
2026-05-05 21:46 18.41092 64.54097 34844 ft 476 kts 124°
2026-05-05 21:47 18.37420 64.59899 34845 ft 476 kts 124°
2026-05-05 21:47 18.33748 64.65697 34848 ft 476 kts 124°
2026-05-05 21:48 18.30066 64.71505 34851 ft 477 kts 124°
2026-05-05 21:48 18.26413 64.77272 34851 ft 477 kts 124°
2026-05-05 21:49 18.22735 64.83070 34853 ft 476 kts 124°
2026-05-05 21:49 18.19051 64.88869 34853 ft 476 kts 124°
2026-05-05 21:50 18.15363 64.94650 34850 ft 476 kts 124°
2026-05-05 21:50 18.11678 65.00436 34846 ft 476 kts 124°
2026-05-05 21:51 18.07991 65.06225 34844 ft 477 kts 124°
2026-05-05 21:51 18.04310 65.12020 34846 ft 478 kts 124°
2026-05-05 21:52 17.98764 65.20718 34850 ft 477 kts 124°
2026-05-05 21:53 17.95052 65.26493 34853 ft 477 kts 124°
2026-05-05 21:53 17.91359 65.32262 34855 ft 476 kts 124°
2026-05-05 21:54 17.87676 65.38036 34853 ft 476 kts 124°
2026-05-05 21:54 17.83987 65.43805 34853 ft 476 kts 124°
2026-05-05 21:55 17.80292 65.49566 34864 ft 476 kts 124°
2026-05-05 21:55 17.76593 65.55325 34873 ft 476 kts 124°
2026-05-05 21:56 17.72887 65.61082 34877 ft 476 kts 124°
2026-05-05 21:56 17.69185 65.66843 34878 ft 476 kts 124°
2026-05-05 21:57 17.65494 65.72596 34881 ft 476 kts 124°
2026-05-05 21:57 17.61790 65.78353 34877 ft 476 kts 124°
2026-05-05 21:58 17.58158 65.84136 34877 ft 476 kts 123°
2026-05-05 21:58 17.54596 65.89984 34875 ft 476 kts 123°
2026-05-05 21:59 17.51024 65.95825 34879 ft 476 kts 123°
2026-05-05 21:59 17.48040 66.00662 34877 ft 476 kts 123°
2026-05-05 22:00 17.44434 66.06467 34876 ft 476 kts 123°
2026-05-05 22:00 17.40828 66.12282 34871 ft 476 kts 123°
2026-05-05 22:01 17.37241 66.18089 34873 ft 476 kts 123°
2026-05-05 22:01 17.33649 66.23910 34872 ft 475 kts 123°
2026-05-05 22:02 17.30045 66.29713 34874 ft 476 kts 123°
2026-05-05 22:02 17.26442 66.35512 34878 ft 475 kts 123°
2026-05-05 22:03 17.22842 66.41305 34880 ft 475 kts 123°
2026-05-05 22:03 17.19238 66.47097 34880 ft 475 kts 123°
2026-05-05 22:04 17.15663 66.52843 34876 ft 474 kts 123°
2026-05-05 22:04 17.12069 66.58622 34877 ft 474 kts 123°
2026-05-05 22:05 17.08467 66.64401 34876 ft 474 kts 123°
2026-05-05 22:05 17.04872 66.70173 34879 ft 474 kts 123°
2026-05-05 22:06 17.01271 66.75938 34879 ft 473 kts 123°
2026-05-05 22:06 16.97675 66.81690 34879 ft 473 kts 123°
2026-05-05 22:07 16.94073 66.87442 34876 ft 473 kts 123°
2026-05-05 22:07 16.90461 66.93202 34877 ft 473 kts 123°
2026-05-05 22:08 16.86863 66.98952 34877 ft 473 kts 123°
2026-05-05 22:08 16.83269 67.04693 34873 ft 473 kts 123°
2026-05-05 22:09 16.79670 67.10426 34871 ft 472 kts 123°
2026-05-05 22:09 16.76064 67.16166 34875 ft 472 kts 123°
2026-05-05 22:10 16.72462 67.21895 34875 ft 472 kts 123°
2026-05-05 22:10 16.68864 67.27615 34875 ft 472 kts 123°
2026-05-05 22:11 16.65269 67.33337 34874 ft 472 kts 123°
2026-05-05 22:11 16.61659 67.39060 34872 ft 472 kts 123°
2026-05-05 22:12 16.58057 67.44768 34876 ft 472 kts 123°
2026-05-05 22:12 16.54452 67.50484 34877 ft 471 kts 123°
2026-05-05 22:13 16.50852 67.56183 34878 ft 471 kts 123°
2026-05-05 22:13 16.47250 67.61878 34880 ft 471 kts 123°
2026-05-05 22:14 16.43643 67.67583 34878 ft 471 kts 123°
2026-05-05 22:14 16.40040 67.73263 34879 ft 470 kts 123°
2026-05-05 22:15 16.36441 67.78942 34878 ft 470 kts 123°
2026-05-05 22:15 16.32864 67.84591 34877 ft 469 kts 123°
2026-05-05 22:16 16.29277 67.90260 34879 ft 469 kts 123°
2026-05-05 22:16 16.25684 67.95920 34877 ft 469 kts 123°
2026-05-05 22:17 16.22100 68.01592 34876 ft 468 kts 123°
2026-05-05 22:17 16.18541 68.07256 34876 ft 468 kts 123°
2026-05-05 22:18 16.14984 68.12935 34873 ft 468 kts 123°
2026-05-05 22:18 16.11418 68.18593 34877 ft 468 kts 123°
2026-05-05 22:19 16.07850 68.24241 34869 ft 468 kts 123°
2026-05-05 22:19 16.04275 68.29901 34865 ft 468 kts 123°
2026-05-05 22:20 16.00705 68.35547 34864 ft 468 kts 123°
2026-05-05 22:20 15.97136 68.41205 34859 ft 468 kts 123°
2026-05-05 22:21 15.93565 68.46845 34858 ft 468 kts 123°
2026-05-05 22:21 15.89990 68.52485 34856 ft 467 kts 123°
2026-05-05 22:22 15.86416 68.58133 34855 ft 467 kts 123°
2026-05-05 22:22 15.82842 68.63771 34855 ft 468 kts 123°
2026-05-05 22:23 15.79263 68.69405 34858 ft 468 kts 123°
2026-05-05 22:23 15.75680 68.75042 34859 ft 467 kts 123°
2026-05-05 22:24 15.72105 68.80671 34859 ft 467 kts 123°
2026-05-05 22:24 15.68530 68.86298 34858 ft 467 kts 123°
2026-05-05 22:25 15.64946 68.91923 34854 ft 467 kts 123°
2026-05-05 22:25 15.61368 68.97544 34851 ft 467 kts 123°
2026-05-05 22:26 15.57782 69.03168 34855 ft 467 kts 123°
2026-05-05 22:26 15.54209 69.08776 34855 ft 466 kts 123°
2026-05-05 22:27 15.50630 69.14379 34855 ft 466 kts 123°
2026-05-05 22:27 15.47068 69.19955 34854 ft 466 kts 123°
2026-05-05 22:28 15.43466 69.25589 34854 ft 466 kts 123°
2026-05-05 22:28 15.39887 69.31202 34852 ft 466 kts 123°
2026-05-05 22:29 15.36330 69.36763 34849 ft 466 kts 123°
2026-05-05 22:29 15.32721 69.42390 34847 ft 466 kts 123°
2026-05-05 22:30 15.29148 69.47953 34846 ft 466 kts 123°
2026-05-05 22:30 15.25559 69.53541 34846 ft 466 kts 123°
2026-05-05 22:31 15.21952 69.59158 34849 ft 466 kts 123°
2026-05-05 22:31 15.18385 69.64708 34849 ft 466 kts 123°
2026-05-05 22:32 15.14798 69.70280 34849 ft 465 kts 123°
2026-05-05 22:32 15.11208 69.75865 34850 ft 466 kts 123°
2026-05-05 22:33 15.07650 69.81457 34851 ft 465 kts 123°
2026-05-05 22:33 15.04113 69.87058 34854 ft 465 kts 123°
2026-05-05 22:34 15.00567 69.92660 34852 ft 465 kts 123°
2026-05-05 22:34 14.97021 69.98249 34848 ft 465 kts 123°
2026-05-05 22:35 14.93458 70.03827 34849 ft 465 kts 124°
2026-05-05 22:35 14.89904 70.09399 34850 ft 464 kts 123°
2026-05-05 22:36 14.86351 70.14980 34845 ft 464 kts 123°
2026-05-05 22:36 14.82816 70.20539 34847 ft 464 kts 123°
2026-05-05 22:37 14.79268 70.26117 34853 ft 464 kts 123°
2026-05-05 22:37 14.75714 70.31686 34854 ft 464 kts 124°
2026-05-05 22:38 14.72161 70.37240 34853 ft 463 kts 124°
2026-05-05 22:38 14.68606 70.42797 34853 ft 463 kts 124°
2026-05-05 22:39 14.65060 70.48348 34854 ft 463 kts 124°
2026-05-05 22:39 14.61511 70.53896 34855 ft 463 kts 124°
2026-05-05 22:40 14.57977 70.59395 34852 ft 463 kts 124°
2026-05-05 22:40 14.54410 70.64972 34849 ft 463 kts 123°
2026-05-05 22:41 14.50884 70.70489 34849 ft 463 kts 124°
2026-05-05 22:41 14.47326 70.76032 34848 ft 463 kts 124°
2026-05-05 22:42 14.43764 70.81567 34849 ft 463 kts 124°
2026-05-05 22:42 14.40200 70.87103 34849 ft 463 kts 124°
2026-05-05 22:43 14.36637 70.92646 34849 ft 464 kts 124°
2026-05-05 22:43 14.33082 70.98195 34847 ft 464 kts 123°
2026-05-05 22:44 14.29563 71.03772 34847 ft 464 kts 123°
2026-05-05 22:44 14.26050 71.09361 34852 ft 465 kts 123°
2026-05-05 22:45 14.22530 71.14947 34850 ft 465 kts 123°
2026-05-05 22:45 14.18996 71.20535 34849 ft 465 kts 123°
2026-05-05 22:46 14.15454 71.26118 34847 ft 466 kts 123°
2026-05-05 22:46 14.11910 71.31701 34849 ft 466 kts 123°
2026-05-05 22:47 14.08960 71.36349 34850 ft 466 kts 123°
2026-05-05 22:47 14.05422 71.41934 34850 ft 466 kts 123°
2026-05-05 22:48 14.01872 71.47517 34844 ft 466 kts 123°
2026-05-05 22:48 13.98317 71.53111 34850 ft 466 kts 123°
2026-05-05 22:49 13.94768 71.58696 34849 ft 466 kts 123°
2026-05-05 22:49 13.91225 71.64269 34850 ft 466 kts 123°
2026-05-05 22:50 13.87667 71.69860 34850 ft 466 kts 123°
2026-05-05 22:50 13.84116 71.75446 34849 ft 467 kts 123°
2026-05-05 22:51 13.80577 71.80998 34850 ft 467 kts 124°
2026-05-05 22:51 13.76983 71.86615 34849 ft 467 kts 123°
2026-05-05 22:52 13.73443 71.92168 34851 ft 467 kts 123°
2026-05-05 22:52 13.69876 71.97765 34852 ft 467 kts 123°
2026-05-05 22:53 13.65994 72.03101 34852 ft 467 kts 129°
2026-05-05 22:53 13.61886 72.08283 34854 ft 467 kts 129°
2026-05-05 22:54 13.57792 72.13460 34854 ft 467 kts 129°
2026-05-05 22:54 13.53703 72.18639 34855 ft 466 kts 129°
2026-05-05 22:55 13.49616 72.23812 34857 ft 466 kts 129°
2026-05-05 22:55 13.45523 72.28979 34857 ft 466 kts 129°
2026-05-05 22:56 13.41430 72.34144 34857 ft 466 kts 129°
2026-05-05 22:56 13.37338 72.39308 34856 ft 466 kts 129°
2026-05-05 22:57 13.33249 72.44468 34859 ft 466 kts 129°
2026-05-05 22:57 13.29158 72.49628 34860 ft 466 kts 129°
2026-05-05 22:58 13.25070 72.54778 34861 ft 465 kts 129°
2026-05-05 22:58 13.20976 72.59926 34862 ft 465 kts 129°
2026-05-05 22:59 13.16877 72.65071 34863 ft 465 kts 129°
2026-05-05 22:59 13.12785 72.70208 34862 ft 465 kts 129°
2026-05-05 23:00 13.06680 72.77888 34863 ft 465 kts 129°
2026-05-05 23:00 13.02591 72.83020 34864 ft 465 kts 129°
2026-05-05 23:01 12.98496 72.88153 34864 ft 465 kts 129°
2026-05-05 23:01 12.94407 72.93280 34867 ft 464 kts 129°
2026-05-05 23:02 12.90322 72.98411 34865 ft 464 kts 129°
2026-05-05 23:02 12.86236 73.03540 34865 ft 464 kts 129°
2026-05-05 23:03 12.82150 73.08649 34867 ft 464 kts 129°
2026-05-05 23:03 12.78060 73.13759 34864 ft 463 kts 129°
2026-05-05 23:04 12.73979 73.18868 34864 ft 463 kts 130°
2026-05-05 23:04 12.69893 73.23968 34865 ft 463 kts 130°
2026-05-05 23:05 12.65808 73.29063 34865 ft 463 kts 130°
2026-05-05 23:05 12.61726 73.34159 34869 ft 463 kts 129°
2026-05-05 23:06 12.57652 73.39256 34867 ft 463 kts 130°
2026-05-05 23:06 12.53571 73.44347 34870 ft 462 kts 130°
2026-05-05 23:07 12.49491 73.49424 34869 ft 462 kts 130°
2026-05-05 23:07 12.45443 73.54472 34868 ft 462 kts 130°
2026-05-05 23:08 12.41369 73.59546 34868 ft 462 kts 130°
2026-05-05 23:08 12.37284 73.64618 34872 ft 461 kts 130°
2026-05-05 23:09 12.33207 73.69676 34876 ft 460 kts 130°
2026-05-05 23:09 12.29140 73.74726 34879 ft 460 kts 130°
2026-05-05 23:10 12.25073 73.79771 34876 ft 459 kts 130°
2026-05-05 23:10 12.21015 73.84811 34882 ft 459 kts 130°
2026-05-05 23:11 12.16958 73.89850 34877 ft 459 kts 130°
2026-05-05 23:11 12.12904 73.94882 34876 ft 459 kts 130°
2026-05-05 23:12 12.08851 73.99914 34872 ft 458 kts 130°
2026-05-05 23:12 12.04796 74.04944 34873 ft 458 kts 130°
2026-05-05 23:13 12.00736 74.09966 34870 ft 459 kts 130°
2026-05-05 23:13 11.96671 74.14997 34873 ft 459 kts 130°
2026-05-05 23:14 11.92611 74.20020 34877 ft 459 kts 130°
2026-05-05 23:14 11.88547 74.25042 34872 ft 459 kts 130°
2026-05-05 23:15 11.84487 74.30056 34870 ft 458 kts 130°
2026-05-05 23:15 11.80423 74.35066 34862 ft 458 kts 130°
2026-05-05 23:16 11.76399 74.40039 34861 ft 457 kts 130°
2026-05-05 23:16 11.72349 74.45045 34860 ft 457 kts 130°
2026-05-05 23:17 11.68299 74.50051 34859 ft 457 kts 130°
2026-05-05 23:17 11.64236 74.55053 34859 ft 457 kts 130°
2026-05-05 23:18 11.60179 74.60047 34859 ft 457 kts 130°
2026-05-05 23:18 11.56124 74.65040 34860 ft 457 kts 130°
2026-05-05 23:19 11.52063 74.70033 34858 ft 457 kts 130°
2026-05-05 23:19 11.47999 74.75018 34857 ft 457 kts 130°
2026-05-05 23:20 11.43940 74.80005 34854 ft 457 kts 130°
2026-05-05 23:20 11.39886 74.84994 34853 ft 457 kts 130°
2026-05-05 23:21 11.35846 74.89954 34855 ft 458 kts 130°
2026-05-05 23:21 11.31754 74.94981 34858 ft 458 kts 130°
2026-05-05 23:22 11.27711 74.99940 34858 ft 458 kts 130°
2026-05-05 23:22 11.23647 75.04922 34857 ft 457 kts 130°
2026-05-05 23:23 11.19581 75.09909 34859 ft 457 kts 130°
2026-05-05 23:23 11.15523 75.14882 34858 ft 457 kts 130°
2026-05-05 23:24 11.11467 75.19850 34858 ft 457 kts 130°
2026-05-05 23:24 11.07403 75.24833 34854 ft 457 kts 130°
2026-05-05 23:25 11.03339 75.29809 34853 ft 457 kts 130°
2026-05-05 23:25 10.99272 75.34779 34853 ft 457 kts 130°
2026-05-05 23:26 10.95201 75.39747 34852 ft 457 kts 130°
2026-05-05 23:26 10.91142 75.44713 34852 ft 457 kts 130°
2026-05-05 23:27 10.87070 75.49692 34854 ft 457 kts 130°
2026-05-05 23:27 10.82998 75.54659 34854 ft 457 kts 130°
2026-05-05 23:28 10.78929 75.59621 34852 ft 457 kts 130°
2026-05-05 23:28 10.74860 75.64578 34850 ft 457 kts 130°
2026-05-05 23:29 10.70786 75.69546 34850 ft 457 kts 130°
2026-05-05 23:29 10.66712 75.74505 34850 ft 457 kts 130°
2026-05-05 23:30 10.63330 75.78622 34851 ft 457 kts 130°
2026-05-05 23:30 10.58574 75.84426 34850 ft 457 kts 130°
2026-05-05 23:31 10.54518 75.89358 34850 ft 457 kts 130°
2026-05-05 23:31 10.50410 75.94347 34847 ft 457 kts 130°
2026-05-05 23:32 10.46328 75.99306 34850 ft 458 kts 130°
2026-05-05 23:32 10.42241 76.04278 34851 ft 458 kts 130°
2026-05-05 23:33 10.38161 76.09233 34849 ft 458 kts 130°
2026-05-05 23:33 10.34092 76.14163 34848 ft 458 kts 130°
2026-05-05 23:34 10.30001 76.19118 34845 ft 458 kts 130°
2026-05-05 23:34 10.26159 76.23778 34842 ft 458 kts 130°
2026-05-05 23:35 10.22056 76.28768 34837 ft 457 kts 130°
2026-05-05 23:35 10.17999 76.33609 34831 ft 457 kts 135°
2026-05-05 23:36 10.15586 76.35696 34832 ft 456 kts 146°
2026-05-05 23:36 10.13803 76.36816 34831 ft 455 kts 153°
2026-05-05 23:36 10.07824 76.38849 34830 ft 455 kts 168°
2026-05-05 23:37 10.01646 76.40218 34738 ft 453 kts 167°
2026-05-05 23:37 9.98584 76.40900 34482 ft 450 kts 167°
2026-05-05 23:37 9.95533 76.41578 34233 ft 449 kts 167°
2026-05-05 23:38 9.94327 76.41846 34135 ft 449 kts 167°
2026-05-05 23:38 9.91968 76.42368 33935 ft 449 kts 167°
2026-05-05 23:38 9.88917 76.43043 33690 ft 450 kts 168°
2026-05-05 23:39 9.85857 76.43719 33438 ft 450 kts 167°
2026-05-05 23:39 9.82797 76.44395 33189 ft 451 kts 167°
2026-05-05 23:39 9.79725 76.45075 32942 ft 451 kts 167°
2026-05-05 23:39 9.76667 76.45755 32687 ft 450 kts 167°
2026-05-05 23:40 9.73634 76.46426 32441 ft 448 kts 167°
2026-05-05 23:40 9.70594 76.47095 32188 ft 447 kts 167°
2026-05-05 23:40 9.67556 76.47763 31937 ft 446 kts 167°
2026-05-05 23:40 9.64524 76.48428 31687 ft 445 kts 168°
2026-05-05 23:41 9.61508 76.49088 31444 ft 443 kts 167°
2026-05-05 23:41 9.58495 76.49751 31186 ft 442 kts 167°
2026-05-05 23:41 9.55504 76.50411 30922 ft 439 kts 167°
2026-05-05 23:41 9.52529 76.51065 30406 ft 436 kts 167°
2026-05-05 23:42 9.49570 76.51716 29852 ft 434 kts 167°
2026-05-05 23:42 9.46629 76.52365 29309 ft 432 kts 167°
2026-05-05 23:42 9.43695 76.53012 28768 ft 430 kts 167°
2026-05-05 23:42 9.40778 76.53656 28234 ft 428 kts 168°
2026-05-05 23:43 9.37907 76.54288 27714 ft 426 kts 168°
2026-05-05 23:43 9.37192 76.54446 27590 ft 425 kts 168°
2026-05-05 23:43 9.34329 76.55078 27070 ft 424 kts 168°
2026-05-05 23:44 9.31455 76.55714 26575 ft 421 kts 168°
2026-05-05 23:44 9.28602 76.56342 26082 ft 419 kts 168°
2026-05-05 23:44 9.25766 76.56967 25611 ft 416 kts 168°
2026-05-05 23:44 9.22941 76.57587 25148 ft 414 kts 168°
2026-05-05 23:45 9.20136 76.58203 24683 ft 411 kts 168°
2026-05-05 23:45 9.17350 76.58814 24222 ft 409 kts 168°
2026-05-05 23:45 9.14574 76.59422 23763 ft 408 kts 168°
2026-05-05 23:45 9.12363 76.59906 23387 ft 406 kts 168°
2026-05-05 23:46 9.12325 76.59915 23384 ft 406 kts 168°
2026-05-05 23:46 9.09548 76.60523 22897 ft 405 kts 168°
2026-05-05 23:46 9.06804 76.61124 22418 ft 403 kts 168°
2026-05-05 23:46 9.04073 76.61724 21933 ft 401 kts 168°
2026-05-05 23:47 9.01355 76.62325 21425 ft 400 kts 168°
2026-05-05 23:47 8.98643 76.62925 20933 ft 398 kts 168°
2026-05-05 23:47 8.95944 76.63519 20404 ft 396 kts 168°
2026-05-05 23:47 8.93267 76.64105 19890 ft 394 kts 168°
2026-05-05 23:48 8.90589 76.64692 19365 ft 392 kts 168°
2026-05-05 23:48 8.87935 76.65273 18850 ft 389 kts 168°
2026-05-05 23:48 8.85303 76.65848 18326 ft 386 kts 168°
2026-05-05 23:48 8.82692 76.66420 17818 ft 383 kts 168°
2026-05-05 23:49 8.81070 76.66776 17495 ft 381 kts 168°
2026-05-05 23:49 8.80054 76.66999 17287 ft 379 kts 168°
2026-05-05 23:49 8.77486 76.67564 16785 ft 376 kts 168°
2026-05-05 23:50 8.74938 76.68124 16278 ft 373 kts 168°
2026-05-05 23:50 8.72410 76.68679 15776 ft 370 kts 168°
2026-05-05 23:50 8.69905 76.69226 15273 ft 367 kts 168°
2026-05-05 23:50 8.67418 76.69771 14771 ft 364 kts 168°
2026-05-05 23:51 8.64951 76.70315 14280 ft 361 kts 167°
2026-05-05 23:51 8.62524 76.70852 14006 ft 348 kts 167°
2026-05-05 23:51 8.60213 76.71355 13874 ft 331 kts 168°
2026-05-05 23:51 8.58009 76.71831 13591 ft 320 kts 168°
2026-05-05 23:52 8.55848 76.72304 13140 ft 316 kts 167°
2026-05-05 23:52 8.53710 76.72774 12660 ft 313 kts 167°
2026-05-05 23:52 8.51646 76.73424 12191 ft 310 kts 155°
2026-05-05 23:52 8.49794 76.74503 11590 ft 306 kts 142°
2026-05-05 23:53 8.48252 76.75943 10914 ft 300 kts 131°
2026-05-05 23:53 8.46858 76.77528 10243 ft 302 kts 131°
2026-05-05 23:53 8.45470 76.79088 10006 ft 299 kts 131°
2026-05-05 23:53 8.44061 76.80675 9506 ft 308 kts 131°
2026-05-05 23:54 8.42645 76.82283 9096 ft 305 kts 131°
2026-05-05 23:54 8.41228 76.83898 8546 ft 303 kts 131°
2026-05-05 23:54 8.39842 76.85462 8068 ft 296 kts 131°
2026-05-05 23:54 8.38473 76.87002 7457 ft 293 kts 131°
2026-05-05 23:55 8.37121 76.88525 6801 ft 291 kts 132°
2026-05-05 23:55 8.35787 76.90027 6492 ft 278 kts 132°
2026-05-05 23:55 8.34544 76.91429 6361 ft 259 kts 132°
2026-05-05 23:55 8.33377 76.92749 6087 ft 247 kts 132°
2026-05-05 23:56 8.32241 76.94030 5642 ft 243 kts 132°
2026-05-05 23:56 8.31120 76.95295 5162 ft 241 kts 132°
2026-05-05 23:56 8.30064 76.96601 4659 ft 240 kts 120°
2026-05-05 23:56 8.29462 76.98154 4136 ft 240 kts 99°
2026-05-05 23:57 8.29450 76.99826 3632 ft 236 kts 78°
2026-05-05 23:57 8.29984 77.01339 3419 ft 222 kts 58°
2026-05-05 23:57 8.30764 77.02616 3292 ft 208 kts 56°
2026-05-05 23:57 8.31510 77.03848 3184 ft 205 kts 56°
2026-05-05 23:58 8.32410 77.04932 3089 ft 200 kts 28°
2026-05-05 23:58 8.33696 77.05315 2990 ft 190 kts 353°
2026-05-05 23:58 8.34884 77.04938 2854 ft 175 kts 322°
2026-05-05 23:58 8.35761 77.04135 2687 ft 163 kts 314°
2026-05-05 23:59 8.36525 77.03389 2555 ft 146 kts 314°
2026-05-05 23:59 8.37237 77.02696 2434 ft 139 kts 315°
2026-05-05 23:59 8.37926 77.02025 2342 ft 136 kts 315°
2026-05-05 23:59 8.38611 77.01356 2279 ft 137 kts 315°
2026-05-06 00:00 8.39295 77.00688 2147 ft 137 kts 315°
2026-05-06 00:00 8.39980 77.00020 1985 ft 137 kts 315°
2026-05-06 00:00 8.40663 76.99355 1812 ft 137 kts 316°
2026-05-06 00:00 8.41346 76.98690 1635 ft 136 kts 316°
2026-05-06 00:01 8.42028 76.98024 1456 ft 136 kts 316°
2026-05-06 00:01 8.42712 76.97358 1275 ft 137 kts 317°
2026-05-06 00:01 8.43394 76.96693 1093 ft 136 kts 317°
2026-05-06 00:01 8.44075 76.96028 898 ft 136 kts 316°
2026-05-06 00:02 8.44752 76.95361 719 ft 137 kts 315°
2026-05-06 00:02 8.45430 76.94691 558 ft 137 kts 316°
2026-05-06 00:02 8.46112 76.94030 358 ft 135 kts 316°
2026-05-06 00:02 8.46792 76.93370 176 ft 136 kts 316°
2026-05-06 00:03 8.47470 76.92713 31 ft 128 kts 316°
2026-05-06 00:03 8.48022 76.92181 25 ft 87 kts 316°
2026-05-06 00:03 8.48338 76.91869 23 ft 47 kts 315°
2026-05-06 00:03 8.48556 76.91654 27 ft 39 kts 314°
2026-05-06 00:04 8.48692 76.91524 25 ft 13 kts 322°
2026-05-06 00:04 8.48750 76.91479 26 ft 8 kts 329°
2026-05-06 00:04 8.48806 76.91484 28 ft 8 kts 33°
2026-05-06 00:04 8.48839 76.91518 25 ft 7 kts 47°
2026-05-06 00:05 8.48822 76.91637 24 ft 13 kts 137°
2026-05-06 00:05 8.48746 76.91708 24 ft 17 kts 135°
2026-05-06 00:05 8.48655 76.91796 24 ft 20 kts 136°
2026-05-06 00:06 8.48561 76.91888 23 ft 17 kts 136°
2026-05-06 00:06 8.48492 76.91956 26 ft 10 kts 132°
2026-05-06 00:06 8.48489 76.92007 24 ft 8 kts 60°
2026-05-06 00:06 8.48532 76.92056 24 ft 11 kts 45°
2026-05-06 00:07 8.48585 76.92110 23 ft 9 kts 47°
2026-05-06 00:07 8.48611 76.92140 26 ft 2 kts 48°
2026-05-06 00:07 8.48619 76.92149 23 ft 0 kts 48°